Content
SEND FEEDBACK

Daily
Averages
Monthly
Summary
Mexico

SAN MARTINIANO, QUINTANA ROO


Home > North America > Mexico > Quintana Roo
Elevation: 49 feet     Latitude: 20 47N     Longitude: 087 16W

WEATHER
 
SELECT A DAY
Number of Records: 196,008;   Date Range: 2/21/06 - 7/7/14
 
SHARE

PRINT THIS DATA

[ ← Previous Day ]
WEATHER ALMANAC - JANUARY 8, 2014
[ Next Day → ]
[ °C ]   °F
Weather ElementAverageHighLow
Temperature52.5 °F66.2 °F (2:15 pm)35.6 °F (1:15 am)
Dewpoint40.6 °F50 °F (5:15 pm)24.8 °F (12:35 am)
Humidity64.8 %77 % (11:35 pm)49 % (12:55 pm)
Barometer30.35 in30.42 in (8:35 am)30.29 in (2:35 pm)
Wind Speed7.6 mph13.8 mph (7:35 am)
Wind Gust20.7 mph (9:15 am)
Weather ElementAverage
Visibility10 mi
Wind DirectionNE (40.7 °)

Weather ElementTotal
Precipitation---
Heating Degree Days14.1 (Base 65)
Growing Degree Days0.9 (Base 50)
Averaged from 71 records on January 8, 2014
WEATHER CONDITIONS BREAKOUT
WIND DIRECTION BREAKOUT
WEATHER BY HOUR - JANUARY 8, 2014
[ °C ]   °F
Local TimeTemperatureDewpointHumidityBarometerVisibilityWind DirectionWind SpeedGust SpeedPrecipitationEventsConditions
12:35 AM37.4 °F24.8 °F60 %30.41 in10.0 miNNE (30°)5.8 mphClear
12:55 AM37.4 °F24.8 °F60 %30.41 in10.0 miNNE (20°)8.1 mphScattered Clouds
1:15 AM35.6 °F26.6 °F70 %30.40 in10.0 miNNE (20°)9.2 mphScattered Clouds
1:35 AM37.4 °F26.6 °F65 %30.40 in10.0 miNNE (30°)6.9 mphMostly Cloudy
1:55 AM37.4 °F26.6 °F65 %30.40 in10.0 miNNE (30°)6.9 mphOvercast
2:15 AM37.4 °F26.6 °F65 %30.39 in10.0 miNNE (20°)8.1 mphOvercast
2:35 AM37.4 °F26.6 °F65 %30.40 in10.0 miNNE (30°)8.1 mphOvercast
2:55 AM37.4 °F26.6 °F65 %30.38 in10.0 miNNE (30°)9.2 mphOvercast
3:15 AM37.4 °F26.6 °F65 %30.38 in10.0 miNNE (20°)3.5 mphOvercast
3:35 AM39.2 °F28.4 °F65 %30.38 in10.0 miNNE (30°)5.8 mphOvercast
3:55 AM39.2 °F28.4 °F65 %30.37 in10.0 miNE (40°)8.1 mphOvercast
4:15 AM39.2 °F28.4 °F65 %30.36 in10.0 miNNE (30°)8.1 mphOvercast
4:35 AM39.2 °F28.4 °F65 %30.35 in10.0 miNE (40°)8.1 mphMostly Cloudy
4:55 AM39.2 °F28.4 °F65 %30.36 in10.0 miNNE (30°)6.9 mphOvercast
5:15 AM39.2 °F30.2 °F70 %30.36 in10.0 miNNE (30°)8.1 mphOvercast
5:35 AM39.2 °F30.2 °F70 %30.35 in10.0 miNNE (30°)9.2 mph17.3 mphOvercast
5:55 AM39.2 °F32.0 °F75 %30.36 in10.0 miNE (40°)9.2 mph17.3 mphOvercast
6:15 AM39.2 °F32.0 °F75 %30.35 in10.0 miNE (40°)10.4 mphOvercast
6:35 AM41.0 °F32.0 °F70 %30.36 in10.0 miNE (40°)9.2 mph16.1 mphOvercast
6:55 AM41.0 °F32.0 °F70 %30.37 in10.0 miNE (40°)10.4 mph17.3 mphOvercast
7:15 AM41.0 °F33.8 °F76 %30.38 in10.0 miNE (40°)9.2 mph18.4 mphOvercast
7:35 AM41.0 °F33.8 °F76 %30.38 in10.0 miNE (50°)13.8 mph17.3 mphOvercast
7:55 AM42.8 °F33.8 °F70 %30.39 in10.0 miNE (50°)12.7 mph17.3 mphOvercast
8:15 AM42.8 °F35.6 °F76 %30.40 in10.0 miENE (60°)12.7 mph17.3 mphOvercast
8:35 AM42.8 °F35.6 °F76 %30.42 in10.0 miNE (50°)10.4 mphOvercast
8:55 AM44.6 °F35.6 °F71 %30.42 in10.0 miNNE (30°)10.4 mph19.6 mphOvercast
9:15 AM46.4 °F37.4 °F71 %30.42 in10.0 miNE (50°)13.8 mph20.7 mphOvercast
9:35 AM46.4 °F37.4 °F71 %30.42 in10.0 miNE (50°)10.4 mph19.6 mphOvercast
9:55 AM48.2 °F39.2 °F71 %30.42 in10.0 miNE (40°)12.7 mph18.4 mphOvercast
10:15 AM50.0 °F39.2 °F66 %30.41 in10.0 miNE (40°)10.4 mphOvercast
10:35 AM51.8 °F41.0 °F67 %30.42 in10.0 miNE (40°)5.8 mphOvercast
10:55 AM53.6 °F41.0 °F62 %30.40 in10.0 miNE (40°)8.1 mphOvercast
11:15 AM55.4 °F42.8 °F63 %30.40 in10.0 miNE (40°)8.1 mphOvercast
11:35 AM59.0 °F42.8 °F55 %30.38 in10.0 miNNE (30°)9.2 mphMostly Cloudy
11:55 AM60.8 °F44.6 °F55 %30.37 in10.0 miNNE (30°)6.9 mphOvercast
12:15 PM60.8 °F44.6 °F55 %30.36 in10.0 miNE (50°)6.9 mph16.1 mphOvercast
12:35 PM62.6 °F44.6 °F52 %30.35 in10.0 miENE (60°)9.2 mph17.3 mphOvercast
12:55 PM64.4 °F44.6 °F49 %30.33 in10.0 miNE (40°)6.9 mphOvercast
1:15 PM64.4 °F44.6 °F49 %30.32 in10.0 miNNE (30°)9.2 mphOvercast
1:35 PM64.4 °F44.6 °F49 %30.32 in10.0 miNE (50°)5.8 mphOvercast
1:55 PM64.4 °F44.6 °F49 %30.31 in10.0 miENE (60°)4.6 mphOvercast
2:15 PM66.2 °F46.4 °F49 %30.30 in10.0 miENE (70°)8.1 mphOvercast
2:35 PM66.2 °F46.4 °F49 %30.29 in10.0 miEast (80°)9.2 mphOvercast
2:55 PM66.2 °F46.4 °F49 %30.30 in10.0 miENE (60°)9.2 mphMostly Cloudy
3:15 PM66.2 °F46.4 °F49 %30.29 in10.0 miENE (60°)8.1 mph18.4 mphOvercast
3:35 PM66.2 °F48.2 °F52 %30.29 in10.0 miENE (60°)5.8 mph9.2 mphOvercast
3:55 PM64.4 °F48.2 °F56 %30.29 in10.0 miNE (40°)6.9 mphOvercast
4:15 PM64.4 °F48.2 °F56 %30.30 in10.0 miNNE (20°)4.6 mphOvercast
4:35 PM64.4 °F48.2 °F56 %30.30 in10.0 miNorth (10°)5.8 mphOvercast
4:55 PM64.4 °F48.2 °F56 %30.30 in10.0 miNNE (30°)6.9 mphOvercast
5:15 PM62.6 °F50.0 °F63 %30.29 in10.0 miNE (40°)4.6 mphScattered Clouds
5:35 PM62.6 °F50.0 °F63 %30.29 in10.0 miENE (70°)5.8 mphMostly Cloudy
5:55 PM62.6 °F50.0 °F63 %30.30 in10.0 miNNE (30°)4.6 mphOvercast
6:15 PM62.6 °F50.0 °F63 %30.29 in10.0 miNNE (30°)8.1 mphOvercast
6:35 PM60.8 °F50.0 °F68 %30.30 in10.0 miNNE (20°)4.6 mphMostly Cloudy
6:55 PM60.8 °F50.0 °F68 %30.29 in10.0 miNE (40°)8.1 mphOvercast
7:15 PM59.0 °F50.0 °F72 %30.30 in10.0 miNE (40°)6.9 mphOvercast
7:35 PM59.0 °F50.0 °F72 %30.30 in10.0 miNNE (30°)6.9 mphOvercast
7:55 PM60.8 °F50.0 °F68 %30.32 in10.0 miNNE (20°)3.5 mphOvercast
8:15 PM60.8 °F50.0 °F68 %30.33 in10.0 miNorth (360°)4.6 mphOvercast
8:35 PM59.0 °F50.0 °F72 %30.33 in10.0 miNNE (20°)3.5 mphOvercast
8:55 PM59.0 °F50.0 °F72 %30.33 in10.0 miNNE (20°)4.6 mphOvercast
9:15 PM59.0 °F50.0 °F72 %30.33 in10.0 miNorth (10°)4.6 mphOvercast
9:35 PM59.0 °F50.0 °F72 %30.34 in10.0 miNorth (10°)4.6 mphOvercast
9:55 PM59.0 °F50.0 °F72 %30.34 in10.0 miNorth (10°)5.8 mphOvercast
10:15 PM59.0 °F50.0 °F72 %30.34 in10.0 miNNE (20°)4.6 mphOvercast
10:35 PM59.0 °F50.0 °F72 %30.33 in10.0 miNorthOvercast
10:55 PM59.0 °F50.0 °F72 %30.33 in10.0 miNNE (30°)6.9 mphOvercast
11:15 PM59.0 °F50.0 °F72 %30.32 in10.0 miNNE (30°)5.8 mphMostly Cloudy
11:35 PM57.2 °F50.0 °F77 %30.32 in10.0 miNE (40°)6.9 mphMostly Cloudy
11:55 PM59.0 °F50.0 °F72 %30.31 in10.0 miNE (40°)6.9 mphOvercast
Hourly data recorded from KPCM, located miles away from San Martiniano, Quintana Roo







STORIES FROM OUR PARTNERS